Weather History for LHPP - November, 2012

Change the Weather History Date:

Sunday, November 11, 2012

  Actual Average Record
Temperature  
Mean Temperature 47 °F -  
Max Temperature 55 °F 44 °F - ()
Min Temperature 39 °F 33 °F - ()
Degree Days  
Heating Degree Days 18    
Moisture  
Dew Point 41 °F    
Average Humidity 79    
Maximum Humidity 93    
Minimum Humidity 64    
Precipitation  
Precipitation 0.00 in 0.07 in - ()
Sea Level Pressure  
Sea Level Pressure 30.05 in    
Wind  
Wind Speed 6 mph ()    
Max Wind Speed 13 mph    
Max Gust Speed -    
Visibility 12.5 miles    
Events      
T = Trace of Precipitation, MM = Missing Value Source: Averaged Metar Reports

Daily Weather History Graph

Daily Weather History Graph

Search for Another Location

Airport or City:

Trip Planner

Search our weather history database for the weather conditions in past years. The results will help you decide how hot, cold, wet, or windy it might be!

Date:

Astronomy

Nov. 11, 2012 Rise Set
Actual Time 6:42 AM CET 4:19 PM CET
Civil Twilight 6:10 AM CET 4:51 PM CET
Nautical Twilight 5:34 AM CET 5:27 PM CET
Astronomical Twilight 4:58 AM CET 6:02 PM CET
Moon 3:27 AM CET (11/11) 2:38 PM CET (11/11)
Length of Visible Light 10h 41m
Length of Day
9h 37m
Waning Crescent, 9% of the Moon is Illuminated
Nov 11
Waning Crescent
Nov 13
New
Nov 20
First Quarter
Nov 28
Full
Dec 6
Last Quarter

Hourly Weather History & Observations

Time (CET) Temp. Windchill Dew Point Humidity Pressure Visibility Wind Dir Wind Speed Gust Speed Precip Events Conditions
12:45 AM 41.0 °F 36.4 °F 37.4 °F 87% 30.04 in - East 6.9 mph - N/A   Clear
1:00 AM 41 °F - 38 °F 85% 30.06 in 9 mi East 6.7 mph - -   Partly Cloudy
1:45 AM 41.0 °F 37.1 °F 37.4 °F 87% 30.04 in - ENE 5.8 mph - N/A   Clear
2:45 AM 41.0 °F 37.1 °F 37.4 °F 87% 30.04 in - East 5.8 mph - N/A   Clear
3:45 AM 41.0 °F 36.4 °F 37.4 °F 87% 30.01 in - East 6.9 mph - N/A   Clear
4:45 AM 41.0 °F 38.0 °F 37.4 °F 87% 30.04 in - East 4.6 mph - N/A   Clear
5:15 AM 39.2 °F 35.0 °F 37.4 °F 93% 30.04 in - East 5.8 mph - N/A   Clear
5:45 AM 39.2 °F 35.0 °F 37.4 °F 93% 30.04 in - East 5.8 mph - N/A   Clear
6:00 AM - - - N/A% - - ENE 4.6 mph - N/A   Clear
6:15 AM 39.2 °F 35.9 °F 35.6 °F 87% 30.04 in - ENE 4.6 mph - N/A   Clear
6:45 AM 39.2 °F 35.0 °F 35.6 °F 87% 30.04 in - ENE 5.8 mph - N/A   Clear
7:15 AM 41.0 °F 35.8 °F 37.4 °F 87% 30.04 in - East 8.1 mph - N/A   Clear
7:45 AM 41.0 °F 37.1 °F 37.4 °F 87% 30.04 in - East 5.8 mph - N/A   Clear
8:15 AM 42.8 °F 38.6 °F 39.2 °F 87% 30.04 in - East 6.9 mph - N/A   Clear
8:45 AM 44.6 °F 40.7 °F 39.2 °F 81% 30.04 in - ENE 6.9 mph - N/A   Clear
9:00 AM - - - N/A% - - East 6.9 mph - N/A   Clear
9:15 AM 46.4 °F 42.4 °F 41.0 °F 81% 30.04 in - East 8.1 mph - N/A   Clear
9:45 AM 48.2 °F - 39.2 °F 71% 30.04 in - East 8.1 mph - N/A   Clear
10:15 AM 50.0 °F - 39.2 °F 66% 30.04 in - ESE 10.4 mph - N/A   Clear
10:45 AM 50.0 °F - 41.0 °F 71% 30.04 in - East 8.1 mph - N/A   Clear
11:15 AM 50.0 °F - 41.0 °F 71% 30.04 in - East 9.2 mph - N/A   Clear
11:45 AM 50.0 °F - 42.8 °F 76% 30.04 in - East 8.1 mph - N/A   Clear
12:00 PM - - - N/A% - - East 8.1 mph - N/A   Clear
12:15 PM 51.8 °F - 42.8 °F 71% 30.04 in - East 10.4 mph - N/A   Clear
12:45 PM 51.8 °F - 42.8 °F 71% 30.01 in - East 12.7 mph - N/A   Clear
1:00 PM 52 °F - 43 °F 64% 30.03 in 16 mi East 11.2 mph - -   Partly Cloudy
1:15 PM 53.6 °F - 42.8 °F 67% 30.01 in - East 10.4 mph - N/A   Clear
1:45 PM 53.6 °F - 44.6 °F 72% 30.01 in - East 9.2 mph - N/A   Clear
2:15 PM 53.6 °F - 44.6 °F 72% 30.04 in - East 9.2 mph - N/A   Clear
2:45 PM 53.6 °F - 44.6 °F 72% 30.04 in - East 8.1 mph - N/A   Clear
3:00 PM - - - N/A% - - East 8.1 mph - N/A   Clear
3:15 PM 55.4 °F - 44.6 °F 67% 30.04 in - East 8.1 mph - N/A   Clear
3:45 PM 55.4 °F - 44.6 °F 67% 30.04 in - East 8.1 mph - N/A   Clear
4:15 PM 51.8 °F - 44.6 °F 76% 30.04 in - East 8.1 mph - N/A   Clear
4:45 PM 50.0 °F - 44.6 °F 82% 30.04 in - East 5.8 mph - N/A   Clear
5:15 PM 50.0 °F - 44.6 °F 82% 30.04 in - East 6.9 mph - N/A   Clear
5:45 PM 48.2 °F - 42.8 °F 82% 30.04 in - East 6.9 mph - N/A   Clear
6:15 PM 48.2 °F - 44.6 °F 87% 30.06 in - East 5.8 mph - N/A   Clear
6:45 PM 48.2 °F - 42.8 °F 82% 30.06 in - ENE 5.8 mph - N/A   Clear
7:15 PM 48.2 °F - 42.8 °F 82% 30.06 in - NE 5.8 mph - N/A   Clear
7:45 PM 50.0 °F - 41.0 °F 71% 30.06 in - East 5.8 mph - N/A   Clear
8:15 PM 48.2 °F - 42.8 °F 82% 30.09 in - East 4.6 mph - N/A   Clear
8:45 PM 48.2 °F - 41.0 °F 76% 30.09 in - ENE 5.8 mph - N/A   Clear
9:45 PM 50.0 °F - 42.8 °F 76% 30.09 in - NE 3.5 mph - N/A   Clear
10:45 PM 50.0 °F - 41.0 °F 71% 30.12 in - NE 3.5 mph - N/A   Clear
11:45 PM 50.0 °F - 41.0 °F 71% 30.12 in - East 3.5 mph - N/A   Clear